Weather History for Rifle, CO

Change the Weather History Date:

Sunday, May 18, 2014

  Actual Average Record
Temperature  
Mean Temperature 64 °F 57 °F  
Max Temperature 83 °F 74 °F 89 °F (1956)
Min Temperature 44 °F 40 °F 26 °F (1931)
Degree Days  
Heating Degree Days 1 8  
Month to date heating degree days 241 188  
Since 1 July heating degree days 6714 6485  
Cooling Degree Days 0 0  
Month to date cooling degree days 0 0  
Year to date cooling degree days 0 0  
Growing Degree Days 13 (Base 50)    
Moisture  
Dew Point 28 °F    
Average Humidity 42    
Maximum Humidity 76    
Minimum Humidity 7    
Precipitation  
Precipitation 0.00 in 0.05 in 0.38 in (1930)
Month to date precipitation 1.19 0.88  
Year to date precipitation 4.02 4.79  
Sea Level Pressure  
Sea Level Pressure 29.66 in    
Wind  
Wind Speed 7 mph (SSW)    
Max Wind Speed 30 mph    
Max Gust Speed 40 mph    
Visibility 10 miles    
Events      
T = Trace of Precipitation, MM = Missing Value Source: NWS Daily Summary

Daily Weather History Graph

Daily Weather History Graph

Search for Another Location

Airport:

Trip Planner

Search our weather history database for the weather conditions in past years. The results will help you decide how hot, cold, wet, or windy it might be!

Date:

Astronomy

May. 18, 2014 Rise Set
Actual Time 5:54 AM MDT 8:21 PM MDT
Civil Twilight 5:23 AM MDT 8:51 PM MDT
Nautical Twilight 4:45 AM MDT 9:29 PM MDT
Astronomical Twilight 4:03 AM MDT 10:12 PM MDT
Moon No Moon Rise 9:46 AM MDT (5/18)
Length of Visible Light 15h 28m
Length of Day
14h 26m
Waning Gibbous, 80% of the Moon is Illuminated
May 18
Waning Gibbous
May 21
Last Quarter
May 28
New
Jun 5
First Quarter
Jun 12
Full

Hourly Weather History & Observations

Time (MDT) Temp. Windchill Dew Point Humidity Pressure Visibility Wind Dir Wind Speed Gust Speed Precip Events Conditions
12:53 AM 55.9 °F - 33.1 °F 42% 29.76 in 10.0 mi SSW 3.5 mph - N/A   Clear
1:53 AM 51.1 °F - 36.0 °F 56% 29.77 in 10.0 mi South 3.5 mph - N/A   Clear
2:53 AM 48.9 °F - 37.0 °F 64% 29.75 in 10.0 mi SSE 4.6 mph - N/A   Clear
3:53 AM 46.9 °F - 36.0 °F 66% 29.74 in 10.0 mi Calm Calm - N/A   Clear
4:53 AM 45.0 °F 43.5 °F 36.0 °F 71% 29.74 in 10.0 mi South 3.5 mph - N/A   Clear
5:53 AM 44.1 °F - 36.0 °F 73% 29.76 in 10.0 mi Calm Calm - N/A   Clear
6:53 AM 46.9 °F - 39.0 °F 74% 29.77 in 10.0 mi Calm Calm - N/A   Clear
7:53 AM 48.9 °F - 39.0 °F 69% 29.79 in 10.0 mi ENE 3.5 mph - N/A   Clear
8:53 AM 55.9 °F - 35.1 °F 45% 29.77 in 10.0 mi WNW 3.5 mph - N/A   Clear
9:53 AM 63.0 °F - 36.0 °F 37% 29.73 in 10.0 mi ENE 3.5 mph - N/A   Clear
10:53 AM 69.1 °F - 37.0 °F 31% 29.70 in 10.0 mi North 4.6 mph - N/A   Clear
11:53 AM 73.9 °F - 30.0 °F 20% 29.65 in 10.0 mi Variable 3.5 mph - N/A   Clear
12:53 PM 80.1 °F - 26.1 °F 14% 29.61 in 10.0 mi West 19.6 mph 27.6 mph N/A   Clear
1:53 PM 79.0 °F - 25.0 °F 14% 29.61 in 10.0 mi West 9.2 mph 25.3 mph N/A   Clear
2:53 PM 82.0 °F - 16.0 °F 8% 29.59 in 10.0 mi SW 17.3 mph 39.1 mph N/A   Clear
3:53 PM 79.0 °F - 14.0 °F 9% 29.59 in 10.0 mi SW 21.9 mph 32.2 mph N/A   Clear
4:53 PM 82.9 °F - 12.9 °F 7% 29.57 in 10.0 mi SW 18.4 mph 35.7 mph N/A   Clear
5:53 PM 80.1 °F - 14.0 °F 8% 29.57 in 10.0 mi SSW 18.4 mph 31.1 mph N/A   Clear
6:53 PM 78.1 °F - 16.0 °F 10% 29.57 in 10.0 mi WSW 13.8 mph - N/A   Clear
7:53 PM 73.9 °F - 17.1 °F 12% 29.57 in 10.0 mi SW 8.1 mph - N/A   Clear
8:53 PM 66.9 °F - 23.0 °F 19% 29.56 in 10.0 mi SSE 5.8 mph - N/A   Clear
9:53 PM 61.0 °F - 28.0 °F 29% 29.57 in 10.0 mi ESE 4.6 mph - N/A   Clear
10:53 PM 62.1 °F - 27.0 °F 26% 29.55 in 10.0 mi East 3.5 mph - N/A   Clear
11:53 PM 57.0 °F - 30.0 °F 36% 29.56 in 10.0 mi SW 8.1 mph - N/A   Clear